Simultaneous Nadir Overpasses (SNOs) Predictions

Prediction of SNOs between GOES-17 and NOAA-19 Satellite Orbit:

Table of predicted SNOs for the next 14.0 days since TLE Epoch: 11/2/2024
Index Date Time (GOES-17) GOES-17 Lat,Lon NOAA-19 Lat,Lon Distance(km) Time Diff (sec)
1 11/02/2024 16:33:54 -0.01,-104.72 0.33,-106.35 185.74 80
2 11/03/2024 16:24:07 0.02,-104.71 -0.31,-103.31 159.93 80
3 11/06/2024 04:43:10 -0.03,-104.64 -0.76,-107.85 365.46 80
4 11/07/2024 04:30:42 -0.04,-104.64 -0.10,-104.82 21.13 80
5 11/08/2024 04:15:36 -0.04,-104.63 0.62,-101.80 323.55 80
6 11/10/2024 16:34:39 0.05,-104.66 0.46,-106.33 190.90 80
7 11/11/2024 16:24:51 0.05,-104.66 -0.24,-103.30 154.17 80
8 11/12/2024 16:12:24 0.05,-104.65 -0.94,-100.28 499.23 80
9 11/14/2024 04:43:54 -0.04,-104.60 -0.76,-107.85 369.99 80
10 11/15/2024 04:31:25 -0.04,-104.59 -0.12,-104.81 25.33 80
